BAW9SW KSAN-EGLL

Flight info

Callsign BAW9SW
Flight time N/A
Altitude 33000
Route ZZOOO4 MTBAL DCT EED DCT KD45Q DCT KD57S DCT KD69U DCT KD84W DCT KP09Y/N0486F350 DCT KP21A DCT KOBID DCT KAIIN DCT 56N090W 60N080W DCT BEPEG DCT NALDI/M082F350 DCT AVPUT/M083F370 DCT 66N050W 6530N04000W 64N030W 6130N02000W DCT ERAKA/N0465F370 DCT ETSOM DCT AKOMU DCT VAMEB DCT NUGRA
Aircraft B77W/H-SDE1E3FGHIJ3J5J6M1M2P2RWXY/LB1D1

Departure

Time 2026-04-23 20:58
Airport San Diego International Airport (KSAN)

Arrival

Time N/A
Airport London Heathrow Airport (EGLL)
Time Latitude Longitude Altitude Speed Heading
2026-04-23 20:01 32.73262 -117.20714 24 ft 0 kts 192°
2026-04-23 20:41 32.73270 -117.20712 25 ft 2 kts 192°
2026-04-23 20:41 32.73283 -117.20709 25 ft 0 kts 192°
2026-04-23 20:41 32.73294 -117.20706 25 ft 2 kts 191°
2026-04-23 20:41 32.73309 -117.20702 25 ft 2 kts 189°
2026-04-23 20:42 32.73323 -117.20700 25 ft 2 kts 188°
2026-04-23 20:42 32.73338 -117.20697 25 ft 2 kts 187°
2026-04-23 20:42 32.73353 -117.20695 25 ft 2 kts 185°
2026-04-23 20:42 32.73369 -117.20694 25 ft 2 kts 184°
2026-04-23 20:43 32.73384 -117.20692 26 ft 2 kts 183°
2026-04-23 20:43 32.73399 -117.20692 26 ft 2 kts 181°
2026-04-23 20:43 32.73410 -117.20692 26 ft 0 kts 180°
2026-04-23 20:43 32.73412 -117.20692 26 ft 0 kts 180°
2026-04-23 20:46 32.73410 -117.20692 26 ft 0 kts 180°
2026-04-23 20:46 32.73396 -117.20692 26 ft 3 kts 180°
2026-04-23 20:46 32.73364 -117.20686 25 ft 5 kts 161°
2026-04-23 20:46 32.73333 -117.20650 25 ft 6 kts 114°
2026-04-23 20:47 32.73330 -117.20610 26 ft 3 kts 81°
2026-04-23 20:47 32.73335 -117.20592 26 ft 1 kts 64°
2026-04-23 20:47 32.73340 -117.20585 26 ft 1 kts 55°
2026-04-23 20:47 32.73346 -117.20574 27 ft 1 kts 46°
2026-04-23 20:48 32.73360 -117.20566 27 ft 2 kts 15°
2026-04-23 20:48 32.73385 -117.20562 28 ft 4 kts
2026-04-23 20:48 32.73425 -117.20558 28 ft 6 kts
2026-04-23 20:48 32.73472 -117.20546 28 ft 7 kts 25°
2026-04-23 20:49 32.73517 -117.20503 28 ft 8 kts 46°
2026-04-23 20:49 32.73561 -117.20445 28 ft 9 kts 47°
2026-04-23 20:49 32.73590 -117.20383 28 ft 8 kts 86°
2026-04-23 20:49 32.73581 -117.20320 28 ft 8 kts 106°
2026-04-23 20:50 32.73564 -117.20251 28 ft 9 kts 106°
2026-04-23 20:50 32.73546 -117.20174 28 ft 10 kts 106°
2026-04-23 20:50 32.73526 -117.20091 28 ft 10 kts 105°
2026-04-23 20:50 32.73505 -117.20001 28 ft 11 kts 105°
2026-04-23 20:51 32.73483 -117.19907 28 ft 12 kts 107°
2026-04-23 20:51 32.73458 -117.19810 29 ft 12 kts 107°
2026-04-23 20:51 32.73435 -117.19716 29 ft 11 kts 106°
2026-04-23 20:51 32.73412 -117.19621 30 ft 11 kts 106°
2026-04-23 20:52 32.73389 -117.19525 31 ft 11 kts 105°
2026-04-23 20:52 32.73368 -117.19435 31 ft 11 kts 107°
2026-04-23 20:52 32.73344 -117.19342 31 ft 12 kts 106°
2026-04-23 20:52 32.73321 -117.19243 31 ft 12 kts 106°
2026-04-23 20:53 32.73295 -117.19138 31 ft 13 kts 106°
2026-04-23 20:53 32.73267 -117.19027 30 ft 14 kts 107°
2026-04-23 20:53 32.73238 -117.18910 30 ft 15 kts 105°
2026-04-23 20:53 32.73210 -117.18793 29 ft 13 kts 105°
2026-04-23 20:54 32.73185 -117.18684 29 ft 13 kts 106°
2026-04-23 20:54 32.73158 -117.18576 28 ft 13 kts 106°
2026-04-23 20:54 32.73133 -117.18470 28 ft 13 kts 106°
2026-04-23 20:54 32.73108 -117.18368 28 ft 12 kts 106°
2026-04-23 20:55 32.73083 -117.18267 28 ft 12 kts 106°
2026-04-23 20:55 32.73060 -117.18167 28 ft 12 kts 106°
2026-04-23 20:55 32.73035 -117.18066 28 ft 12 kts 105°
2026-04-23 20:55 32.73013 -117.17968 29 ft 11 kts 105°
2026-04-23 20:56 32.72991 -117.17881 30 ft 10 kts 108°
2026-04-23 20:56 32.72971 -117.17800 32 ft 10 kts 106°
2026-04-23 20:56 32.72953 -117.17722 33 ft 9 kts 98°
2026-04-23 20:56 32.72960 -117.17654 34 ft 8 kts 71°
2026-04-23 20:57 32.72989 -117.17601 34 ft 6 kts 29°
2026-04-23 20:57 32.73021 -117.17618 35 ft 5 kts 305°
2026-04-23 20:57 32.73038 -117.17662 35 ft 6 kts 289°
2026-04-23 20:57 32.73040 -117.17670 35 ft 0 kts 287°
2026-04-23 20:58 32.73061 -117.17757 33 ft 39 kts 287°
2026-04-23 20:58 32.73213 -117.18378 29 ft 113 kts 285°
2026-04-23 20:58 32.73495 -117.19524 80 ft 170 kts 286°
2026-04-23 20:58 32.73846 -117.20915 650 ft 182 kts 287°
2026-04-23 20:59 32.74215 -117.22342 1505 ft 180 kts 288°
2026-04-23 20:59 32.74602 -117.23834 1830 ft 197 kts 288°
2026-04-23 20:59 32.75004 -117.25442 2258 ft 211 kts 288°
2026-04-23 20:59 32.75429 -117.27200 2674 ft 227 kts 288°
2026-04-23 21:00 32.75872 -117.29064 3234 ft 238 kts 288°
2026-04-23 21:00 32.76295 -117.30955 4015 ft 238 kts 286°
2026-04-23 21:00 32.76493 -117.32883 4686 ft 242 kts 264°
2026-04-23 21:00 32.75967 -117.34800 5320 ft 248 kts 238°
2026-04-23 21:01 32.74764 -117.36258 6103 ft 248 kts 214°
2026-04-23 21:01 32.73143 -117.37005 6673 ft 257 kts 188°
2026-04-23 21:01 32.71352 -117.36852 7265 ft 264 kts 162°
2026-04-23 21:01 32.69766 -117.35683 7832 ft 272 kts 134°
2026-04-23 21:02 32.68613 -117.33882 8488 ft 274 kts 127°
2026-04-23 21:02 32.67485 -117.32057 9175 ft 275 kts 129°
2026-04-23 21:02 32.66340 -117.30235 9750 ft 280 kts 129°
2026-04-23 21:02 32.65151 -117.28361 10306 ft 286 kts 127°
2026-04-23 21:03 32.64045 -117.26373 10925 ft 289 kts 123°
2026-04-23 21:03 32.63142 -117.24229 11500 ft 295 kts 104°
2026-04-23 21:03 32.62832 -117.21772 11822 ft 311 kts 95°
2026-04-23 21:03 32.62626 -117.19111 12083 ft 330 kts 96°
2026-04-23 21:04 32.62392 -117.16338 12379 ft 347 kts 96°
2026-04-23 21:04 32.62146 -117.13382 12717 ft 365 kts 93°
2026-04-23 21:04 32.62257 -117.10308 13056 ft 381 kts 80°
2026-04-23 21:04 32.62912 -117.07215 13381 ft 397 kts 69°
2026-04-23 21:05 32.63916 -117.04081 13802 ft 411 kts 67°
2026-04-23 21:05 32.64973 -117.00880 14300 ft 423 kts 67°
2026-04-23 21:05 32.66002 -116.97583 15062 ft 428 kts 72°
2026-04-23 21:05 32.66622 -116.94077 15797 ft 433 kts 83°
2026-04-23 21:06 32.66801 -116.90505 16459 ft 439 kts 88°
2026-04-23 21:06 32.66989 -116.86877 17120 ft 444 kts 81°
2026-04-23 21:06 32.67676 -116.83276 17839 ft 446 kts 70°
2026-04-23 21:06 32.68867 -116.79887 18465 ft 448 kts 59°
2026-04-23 21:07 32.70545 -116.76735 19055 ft 450 kts 49°
2026-04-23 21:07 32.72623 -116.73994 19655 ft 450 kts 38°
2026-04-23 21:07 32.75108 -116.71668 20292 ft 449 kts 28°
2026-04-23 21:07 32.77834 -116.69906 20904 ft 447 kts 18°
2026-04-23 21:08 32.80748 -116.68488 21533 ft 449 kts 16°
2026-04-23 21:08 32.83667 -116.67107 22195 ft 451 kts 16°
2026-04-23 21:08 32.86602 -116.65707 22775 ft 456 kts 16°
2026-04-23 21:08 32.89582 -116.64273 23292 ft 461 kts 16°
2026-04-23 21:09 32.92596 -116.62813 23816 ft 467 kts 17°
2026-04-23 21:09 32.95619 -116.61342 24317 ft 472 kts 16°
2026-04-23 21:09 32.98699 -116.59837 24776 ft 478 kts 17°
2026-04-23 21:09 33.01805 -116.58314 25258 ft 484 kts 17°
2026-04-23 21:10 33.04907 -116.56713 25816 ft 487 kts 18°
2026-04-23 21:10 33.08013 -116.55087 26266 ft 492 kts 18°
2026-04-23 21:10 33.11184 -116.53425 26724 ft 497 kts 18°
2026-04-23 21:10 33.14382 -116.51749 27205 ft 501 kts 18°
2026-04-23 21:11 33.17591 -116.50066 27695 ft 504 kts 18°
2026-04-23 21:11 33.20842 -116.48361 28149 ft 508 kts 18°
2026-04-23 21:11 33.24116 -116.46644 28557 ft 513 kts 18°
2026-04-23 21:11 33.27427 -116.44906 28968 ft 518 kts 18°
2026-04-23 21:12 33.30743 -116.43163 29415 ft 521 kts 18°
2026-04-23 21:12 33.34063 -116.41409 30038 ft 521 kts 19°
2026-04-23 21:12 33.37295 -116.39266 30765 ft 524 kts 28°
2026-04-23 21:12 33.40207 -116.36605 31466 ft 527 kts 37°
2026-04-23 21:13 33.42796 -116.33460 32037 ft 530 kts 46°
2026-04-23 21:13 33.45050 -116.29950 32437 ft 533 kts 51°
2026-04-23 21:13 33.47199 -116.26350 32879 ft 534 kts 52°
2026-04-23 21:13 33.49382 -116.22675 32991 ft 536 kts 51°
2026-04-23 21:14 33.53666 -116.15469 32982 ft 531 kts 52°
2026-04-23 21:14 33.57993 -116.08196 32971 ft 535 kts 51°
2026-04-23 21:15 33.62590 -116.01242 32982 ft 533 kts 44°
2026-04-23 21:15 33.67584 -115.94642 33004 ft 533 kts 44°
2026-04-23 21:16 33.72561 -115.88061 33035 ft 530 kts 44°
2026-04-23 21:16 33.77564 -115.81431 33051 ft 533 kts 44°
2026-04-23 21:17 33.82500 -115.74873 33062 ft 532 kts 44°
2026-04-23 21:17 33.87498 -115.68220 33045 ft 533 kts 43°
2026-04-23 21:18 33.92433 -115.61638 33027 ft 533 kts 43°
2026-04-23 21:18 33.97402 -115.54997 33007 ft 531 kts 44°
2026-04-23 21:19 34.02378 -115.48334 32987 ft 532 kts 43°
2026-04-23 21:19 34.07311 -115.41718 32987 ft 533 kts 44°
2026-04-23 21:20 34.12273 -115.35048 32974 ft 529 kts 43°
2026-04-23 21:20 34.17234 -115.28368 32957 ft 533 kts 44°
2026-04-23 21:21 34.22192 -115.21680 32942 ft 530 kts 44°
2026-04-23 21:21 34.27139 -115.14993 32942 ft 531 kts 44°
2026-04-23 21:22 34.32073 -115.08310 32930 ft 531 kts 44°
2026-04-23 21:22 34.37054 -115.01551 32940 ft 529 kts 44°
2026-04-23 21:23 34.42024 -114.94795 32942 ft 530 kts 44°
2026-04-23 21:23 34.46955 -114.88077 32947 ft 527 kts 44°
2026-04-23 21:24 34.51843 -114.81408 32948 ft 530 kts 44°
2026-04-23 21:24 34.56733 -114.74719 32951 ft 527 kts 44°
2026-04-23 21:25 34.61600 -114.68052 32959 ft 528 kts 44°
2026-04-23 21:25 34.66473 -114.61362 32955 ft 525 kts 44°
2026-04-23 21:26 34.71309 -114.54712 32948 ft 524 kts 44°
2026-04-23 21:26 34.76187 -114.47991 32932 ft 525 kts 44°
2026-04-23 21:27 34.80814 -114.41107 32937 ft 526 kts 47°
2026-04-23 21:27 34.85358 -114.34043 32950 ft 526 kts 48°
2026-04-23 21:28 34.89907 -114.26987 32962 ft 526 kts 48°
2026-04-23 21:28 34.94438 -114.19961 32987 ft 526 kts 48°
2026-04-23 21:29 34.99023 -114.12848 33016 ft 526 kts 48°
2026-04-23 21:29 35.03548 -114.05820 33045 ft 525 kts 48°
2026-04-23 21:30 35.08082 -113.98766 33057 ft 525 kts 47°
2026-04-23 21:30 35.12638 -113.91667 33051 ft 528 kts 48°
2026-04-23 21:31 35.17171 -113.84587 33057 ft 528 kts 48°
2026-04-23 21:31 35.21701 -113.77502 33066 ft 529 kts 47°
2026-04-23 21:32 35.26263 -113.70350 33081 ft 529 kts 47°
2026-04-23 21:32 35.30792 -113.63237 33084 ft 530 kts 47°
2026-04-23 21:33 35.35352 -113.56059 33091 ft 534 kts 47°
2026-04-23 21:33 35.39952 -113.48804 33091 ft 532 kts 47°
2026-04-23 21:34 35.44504 -113.41607 33098 ft 536 kts 47°
2026-04-23 21:34 35.49044 -113.34413 33102 ft 535 kts 48°
2026-04-23 21:35 35.53564 -113.27237 33087 ft 535 kts 47°
2026-04-23 21:35 35.58158 -113.19930 33089 ft 537 kts 47°
2026-04-23 21:36 35.64968 -113.09070 33091 ft 537 kts 47°
2026-04-23 21:37 35.69461 -113.01887 33095 ft 538 kts 48°
2026-04-23 21:37 35.74009 -112.94599 33093 ft 538 kts 48°
2026-04-23 21:38 35.78546 -112.87315 33097 ft 538 kts 48°
2026-04-23 21:38 35.83138 -112.79929 33098 ft 540 kts 47°
2026-04-23 21:39 35.87701 -112.72569 33099 ft 537 kts 47°
2026-04-23 21:39 35.92242 -112.65235 33098 ft 540 kts 47°
2026-04-23 21:40 35.96820 -112.57822 33101 ft 538 kts 47°
2026-04-23 21:40 36.01364 -112.50449 33092 ft 540 kts 47°
2026-04-23 21:41 36.05909 -112.43057 33095 ft 539 kts 47°
2026-04-23 21:41 36.10458 -112.35644 33094 ft 541 kts 47°
2026-04-23 21:42 36.15061 -112.28127 33079 ft 540 kts 48°
2026-04-23 21:42 36.19628 -112.20652 33083 ft 542 kts 48°
2026-04-23 21:43 36.24175 -112.13193 33081 ft 542 kts 48°
2026-04-23 21:43 36.28746 -112.05679 33083 ft 542 kts 48°
2026-04-23 21:44 36.33263 -111.98236 33081 ft 542 kts 47°
2026-04-23 21:44 36.37814 -111.90723 33089 ft 543 kts 48°
2026-04-23 21:45 36.42375 -111.83174 33093 ft 544 kts 48°
2026-04-23 21:45 36.46924 -111.75630 33093 ft 544 kts 48°
2026-04-23 21:46 36.51474 -111.68067 33088 ft 545 kts 47°
2026-04-23 21:46 36.55987 -111.60548 33086 ft 544 kts 47°
2026-04-23 21:47 36.60532 -111.52960 33074 ft 546 kts 47°
2026-04-23 21:47 36.65074 -111.45361 33070 ft 547 kts 47°
2026-04-23 21:48 36.69587 -111.37792 33069 ft 546 kts 47°
2026-04-23 21:48 36.74139 -111.30143 33051 ft 550 kts 48°
2026-04-23 21:49 36.78692 -111.22469 33051 ft 548 kts 48°
2026-04-23 21:49 36.83248 -111.14777 33051 ft 550 kts 48°
2026-04-23 21:50 36.87788 -111.07094 33050 ft 549 kts 48°
2026-04-23 21:50 36.92331 -110.99390 33049 ft 551 kts 48°
2026-04-23 21:51 36.96875 -110.91663 33057 ft 551 kts 47°
2026-04-23 21:51 37.01407 -110.83942 33048 ft 552 kts 48°
2026-04-23 21:52 37.05946 -110.76188 33057 ft 551 kts 47°
2026-04-23 21:52 37.10459 -110.68462 33049 ft 550 kts 47°
2026-04-23 21:53 37.15017 -110.60643 33057 ft 552 kts 47°
2026-04-23 21:53 37.19553 -110.52840 33046 ft 552 kts 47°
2026-04-23 21:54 37.24107 -110.44991 33048 ft 552 kts 47°
2026-04-23 21:54 37.28655 -110.37132 33055 ft 552 kts 47°
2026-04-23 21:55 37.33176 -110.29301 33049 ft 553 kts 48°
2026-04-23 21:55 37.37720 -110.21413 33051 ft 554 kts 48°
2026-04-23 21:56 37.42257 -110.13516 33047 ft 553 kts 48°
2026-04-23 21:56 37.46773 -110.05640 33042 ft 554 kts 48°
2026-04-23 21:57 37.51733 -109.98237 33041 ft 541 kts 34°
2026-04-23 21:57 37.57594 -109.92429 33044 ft 533 kts 28°
2026-04-23 21:58 37.63555 -109.86760 33047 ft 532 kts 28°
2026-04-23 21:58 37.69505 -109.81047 33049 ft 533 kts 28°
2026-04-23 21:59 37.75371 -109.75375 33047 ft 533 kts 28°
2026-04-23 21:59 37.81285 -109.69631 33053 ft 531 kts 28°
2026-04-23 22:00 37.90124 -109.61011 33056 ft 531 kts 28°
2026-04-23 22:00 37.96020 -109.55242 33062 ft 533 kts 28°
2026-04-23 22:01 38.01941 -109.49433 33056 ft 532 kts 28°
2026-04-23 22:01 38.07795 -109.43675 33069 ft 531 kts 28°
2026-04-23 22:02 38.13605 -109.37949 33067 ft 529 kts 28°
2026-04-23 22:02 38.19431 -109.32197 33056 ft 528 kts 29°
2026-04-23 22:03 38.25258 -109.26431 33039 ft 526 kts 29°
2026-04-23 22:03 38.31066 -109.20673 33048 ft 527 kts 30°
2026-04-23 22:04 38.36846 -109.14927 33028 ft 522 kts 30°
2026-04-23 22:04 38.42580 -109.09218 33037 ft 523 kts 30°
2026-04-23 22:05 38.48350 -109.03461 33052 ft 522 kts 30°
2026-04-23 22:05 38.54065 -108.97745 33060 ft 520 kts 30°
2026-04-23 22:06 38.59748 -108.92051 33060 ft 517 kts 30°
2026-04-23 22:06 38.65430 -108.86348 33068 ft 520 kts 30°
2026-04-23 22:07 38.71070 -108.80670 33021 ft 512 kts 30°
2026-04-23 22:07 38.76669 -108.75028 33101 ft 516 kts 31°
2026-04-23 22:08 38.82289 -108.69347 33056 ft 509 kts 30°
2026-04-23 22:08 38.87830 -108.63739 33049 ft 511 kts 31°
2026-04-23 22:09 38.93402 -108.58086 33058 ft 508 kts 31°
2026-04-23 22:09 38.98996 -108.52399 33038 ft 508 kts 31°
2026-04-23 22:10 39.04544 -108.46747 33042 ft 504 kts 31°
2026-04-23 22:10 39.10106 -108.41071 33038 ft 505 kts 31°
2026-04-23 22:11 39.15582 -108.35468 33066 ft 501 kts 31°
2026-04-23 22:11 39.21066 -108.29850 33040 ft 505 kts 32°
2026-04-23 22:12 39.26508 -108.24258 33050 ft 500 kts 32°
2026-04-23 22:12 39.31917 -108.18693 33059 ft 503 kts 32°
2026-04-23 22:13 39.37358 -108.13081 33047 ft 500 kts 32°
2026-04-23 22:13 39.42806 -108.07451 33063 ft 498 kts 32°
2026-04-23 22:14 39.48246 -108.01819 33093 ft 499 kts 32°
2026-04-23 22:14 39.53720 -107.96330 33075 ft 495 kts 30°
2026-04-23 22:15 39.59224 -107.91054 33036 ft 490 kts 30°
2026-04-23 22:15 39.64761 -107.85726 33040 ft 492 kts 30°
2026-04-23 22:16 39.70278 -107.80393 33056 ft 492 kts 31°
2026-04-23 22:16 39.75758 -107.75079 33022 ft 491 kts 31°
2026-04-23 22:17 39.81239 -107.69750 33037 ft 490 kts 31°